Weather in Kamenka

Russia / Saratov Oblast     52°02′23″N   43°56′58″E
temp.,
°C
wind,
m/s
gust,
m/s
humid.,
%
clouds,
%
prec.,
mm/h
press.,
hPa
HPBL,
m
19 september, sun
sun1901:00+7e485899 0.0 1023252
04:00+7e51059100 0.0 1023318
07:00+7ese51062100 0.1 1023376
10:00+7ese51062100 0.1 1023430
13:00+9ese61056100 0.1 1023459
16:00+12ese71043100 0.1 1021748
19:00+11ese61144100 0.0 1020600
22:00+12ese81539100 0.1 1019624
20 september, mon
mon2001:00+11ese81539100 0.0 1018633
04:00+9ese81554100 0.8 1018619
07:00+7ese101874100 3.5 1016541
10:00+8ese81763100 5.1 1016744
13:00+7ese91783100 3.9 1016734
16:00+8se91688100 5.9 1016728
19:00+8se91586100 0.2 1015580
22:00+9ese71485100 0.3 1015508
21 september, tue
tue2101:00+9ese71490100 0.4 1015452
04:00+9ese61193100 0.4 1014333
07:00+8ese41088100 0.1 1014273
10:00+11ese5775100 0.5 1014395
13:00+16se5664100 0.8 1012771
16:00+18s4658100 1.2 10111332
19:00+15ssw2271100 0.4 101120
22:00+14s2373100 0.4 101038
22 september, wed
wed2201:00+13s2484100 0.1 1010109
04:00+12ssw3788100 0.3 1009392
07:00+10sw369164 0.0 1009164
10:00+13wsw45735 0.0 1010582
13:00+14sw4559100 0.1 10111362
16:00+13wsw556299 0.1 1012802
19:00+11wsw246885 0.0 1014198
22:00+11wsw3566100 0.0 1015192
23 september, thu
thu2301:00+10wnw2374100 0.0 1016182
04:00+10ne1174100 0.0 101625
07:00+9ese2274100 0.0 101764
10:00+11se2367100 0.0 1017248
13:00+14sse2451100 0.0 1017996
16:00+15sse1444100 0.0 10161337
19:00+13ene2356100 0.0 101658
22:00+11ese3893100 0.1 1016224